Weather History for Robinson, IL

Change the Weather History Date:

Saturday, August 17, 2013

  Actual Average (KLWV) Record (KLWV)
Temperature  
Mean Temperature 70 °F 77 °F  
Max Temperature 82 °F 88 °F 93 °F (1991)
Min Temperature 59 °F 66 °F 53 °F (2004)
Degree Days  
Heating Degree Days 0 0  
Month to date heating degree days 0  
Since 1 June heating degree days 7  
Since 1 July heating degree days 0  
Cooling Degree Days 6 12  
Month to date cooling degree days 204  
Year to date cooling degree days 1031  
Since 1 June cooling degree days 892  
Growing Degree Days 20 (Base 50)    
Moisture  
Dew Point 61 °F    
Average Humidity 75    
Maximum Humidity 96    
Minimum Humidity 47    
Precipitation  
Precipitation 0.00 in 0.12 in 1.84 in (2014)
Month to date precipitation 1.75  
Year to date precipitation 27.71  
Sea Level Pressure  
Sea Level Pressure 30.16 in    
Wind  
Wind Speed 3 mph (North)    
Max Wind Speed 10 mph    
Max Gust Speed -    
Visibility 10 miles    
Events      
T = Trace of Precipitation, MM = Missing Value Source: NWS Daily Summary

Daily Weather History Graph

Daily Weather History Graph

Search for Another Location

Airport:

Trip Planner

Search our weather history database for the weather conditions in past years. The results will help you decide how hot, cold, wet, or windy it might be!

Date:

Astronomy

Aug. 17, 2013 Rise Set
Actual Time 6:06 AM CDT 7:42 PM CDT
Civil Twilight 5:37 AM CDT 8:10 PM CDT
Nautical Twilight 5:03 AM CDT 8:44 PM CDT
Astronomical Twilight 4:27 AM CDT 9:20 PM CDT
Moon 4:56 PM CDT (8/17) 2:09 AM CDT (8/17)
Length of Visible Light 14h 33m
Length of Day
13h 36m
Waxing Gibbous, 84% of the Moon is Illuminated
Aug 17
Waxing Gibbous
Aug 20
Full
Aug 28
Last Quarter
Sep 5
New
Sep 12
First Quarter

Hourly Weather History & Observations

Time (CDT) Temp. Heat Index Dew Point Humidity Pressure Visibility Wind Dir Wind Speed Gust Speed Precip Events Conditions
12:15 AM 61.2 °F - 59.0 °F 93% 30.17 in 10.0 mi Calm Calm - N/A   Clear
12:35 AM 60.8 °F - 59.0 °F 94% 30.17 in 10.0 mi Calm Calm - N/A   Clear
12:55 AM 61.2 °F - 59.9 °F 96% 30.17 in 10.0 mi Calm Calm - N/A   Clear
1:15 AM 61.3 °F - 59.5 °F 94% 30.16 in 10.0 mi NNW 3.5 mph - N/A   Clear
1:35 AM 61.2 °F - 59.0 °F 93% 30.16 in 10.0 mi North 3.5 mph - N/A   Clear
1:55 AM 61.3 °F - 59.0 °F 92% 30.16 in 10.0 mi Calm Calm - N/A   Clear
2:15 AM 61.3 °F - 58.8 °F 91% 30.16 in 10.0 mi Calm Calm - N/A   Clear
2:35 AM 61.2 °F - 58.6 °F 91% 30.16 in 10.0 mi NNW 4.6 mph - N/A   Clear
2:55 AM 61.2 °F - 58.6 °F 91% 30.16 in 10.0 mi NNW 3.5 mph - N/A   Clear
3:15 AM 61.2 °F - 58.5 °F 91% 30.16 in 10.0 mi Calm Calm - N/A   Clear
3:35 AM 61.0 °F - 58.3 °F 91% 30.16 in 10.0 mi NNW 3.5 mph - N/A   Clear
3:55 AM 60.8 °F - 58.1 °F 91% 30.16 in 10.0 mi NNW 3.5 mph - N/A   Clear
4:15 AM 60.8 °F - 58.1 °F 91% 30.16 in 10.0 mi NNW 3.5 mph - N/A   Clear
4:35 AM 60.4 °F - 58.1 °F 92% 30.16 in 10.0 mi Calm Calm - N/A   Clear
4:55 AM 60.1 °F - 58.1 °F 93% 30.17 in 10.0 mi NNW 3.5 mph - N/A   Clear
5:15 AM 60.1 °F - 57.7 °F 92% 30.16 in 10.0 mi NNW 3.5 mph - N/A   Scattered Clouds
5:35 AM 59.9 °F - 57.6 °F 92% 30.17 in 10.0 mi Calm Calm - N/A   Clear
5:55 AM 59.0 °F - 57.4 °F 94% 30.17 in 10.0 mi Calm Calm - N/A   Clear
6:15 AM 59.2 °F - 57.4 °F 94% 30.18 in 10.0 mi Calm Calm - N/A   Clear
6:35 AM 59.7 °F - 58.5 °F 96% 30.18 in 10.0 mi Calm Calm - N/A   Clear
6:55 AM 61.2 °F - 59.4 °F 94% 30.19 in 10.0 mi Calm Calm - N/A   Clear
7:15 AM 62.2 °F - 59.4 °F 90% 30.19 in 10.0 mi NNW 3.5 mph - N/A   Clear
7:55 AM 63.0 °F - 59.9 °F 90% 30.19 in 10.0 mi NNW 3.5 mph - N/A   Clear
8:15 AM 63.9 °F - 60.6 °F 89% 30.20 in 10.0 mi NNW 3.5 mph - N/A   Clear
8:35 AM 64.4 °F - 60.8 °F 88% 30.20 in 10.0 mi Calm Calm - N/A   Clear
8:55 AM 65.5 °F - 60.6 °F 84% 30.20 in 10.0 mi North 3.5 mph - N/A   Clear
9:15 AM 66.4 °F - 60.3 °F 81% 30.21 in 10.0 mi Calm Calm - N/A   Clear
9:35 AM 67.5 °F - 61.0 °F 80% 30.20 in 10.0 mi NNE 3.5 mph - N/A   Clear
9:55 AM 69.3 °F - 61.5 °F 76% 30.21 in 10.0 mi NNE 5.8 mph - N/A   Clear
10:15 AM 71.2 °F - 60.6 °F 69% 30.21 in 10.0 mi NE 5.8 mph - N/A   Clear
10:35 AM 72.5 °F - 60.4 °F 66% 30.22 in 10.0 mi ENE 3.5 mph - N/A   Clear
10:55 AM 73.6 °F - 61.2 °F 65% 30.21 in 10.0 mi ENE 4.6 mph - N/A   Clear
11:15 AM 76.3 °F - 62.6 °F 62% 30.20 in 10.0 mi Calm Calm - N/A   Clear
11:35 AM 77.2 °F - 61.7 °F 59% 30.20 in 10.0 mi NE 3.5 mph - N/A   Clear
11:55 AM 78.4 °F - 62.2 °F 57% 30.19 in 10.0 mi ENE 4.6 mph - N/A   Clear
12:15 PM 79.2 °F - 62.4 °F 56% 30.19 in 10.0 mi NNE 8.1 mph - N/A   Clear
12:35 PM 80.2 °F 81.2 °F 61.2 °F 52% 30.18 in 10.0 mi NE 5.8 mph - N/A   Clear
12:55 PM 81.7 °F 82.4 °F 61.5 °F 50% 30.17 in 10.0 mi East 5.8 mph - N/A   Clear
1:15 PM 80.8 °F 81.4 °F 60.1 °F 49% 30.17 in 10.0 mi North 6.9 mph - N/A   Clear
1:35 PM 80.2 °F 80.9 °F 59.4 °F 49% 30.16 in 10.0 mi NNE 8.1 mph - N/A   Clear
1:55 PM 78.8 °F - 58.3 °F 49% 30.16 in 10.0 mi North 8.1 mph - N/A   Scattered Clouds
2:15 PM 80.1 °F 80.7 °F 59.0 °F 48% 30.16 in 10.0 mi North 6.9 mph - N/A   Scattered Clouds
2:35 PM 79.7 °F - 57.6 °F 47% 30.15 in 10.0 mi North 6.9 mph - N/A   Mostly Cloudy
2:55 PM 79.9 °F - 59.2 °F 49% 30.15 in 10.0 mi North 6.9 mph - N/A   Scattered Clouds
3:15 PM 80.8 °F 81.8 °F 61.7 °F 52% 30.14 in 10.0 mi North 9.2 mph - N/A   Scattered Clouds
3:35 PM 82.2 °F 83.2 °F 62.2 °F 51% 30.14 in 10.0 mi NNE 10.4 mph - N/A   Scattered Clouds
3:55 PM 81.7 °F 82.3 °F 60.6 °F 49% 30.14 in 10.0 mi NNE 9.2 mph - N/A   Scattered Clouds
4:15 PM 80.1 °F 81.1 °F 61.2 °F 52% 30.14 in 10.0 mi NNE 8.1 mph - N/A   Mostly Cloudy
4:35 PM 79.7 °F - 60.6 °F 52% 30.14 in 10.0 mi NNE 6.9 mph - N/A   Mostly Cloudy
4:55 PM 81.9 °F 82.5 °F 60.8 °F 49% 30.14 in 10.0 mi NE 9.2 mph - N/A   Scattered Clouds
5:15 PM 80.4 °F 81.2 °F 60.4 °F 50% 30.14 in 10.0 mi NNE 8.1 mph - N/A   Clear
5:35 PM 81.3 °F 81.7 °F 59.4 °F 47% 30.14 in 10.0 mi NNE 5.8 mph - N/A   Clear
5:55 PM 81.1 °F 81.6 °F 59.9 °F 48% 30.14 in 10.0 mi NE 4.6 mph - N/A   Scattered Clouds
6:15 PM 79.3 °F - 60.6 °F 53% 30.13 in 10.0 mi NNE 4.6 mph - N/A   Mostly Cloudy
6:35 PM 77.9 °F - 61.7 °F 57% 30.13 in 10.0 mi North 4.6 mph - N/A   Overcast
6:55 PM 76.8 °F - 61.5 °F 59% 30.13 in 10.0 mi North 4.6 mph - N/A   Mostly Cloudy
7:15 PM 75.4 °F - 62.2 °F 64% 30.13 in 10.0 mi NNE 3.5 mph - N/A   Scattered Clouds
7:35 PM 73.2 °F - 63.5 °F 71% 30.13 in 10.0 mi NNE 3.5 mph - N/A   Scattered Clouds
7:55 PM 72.5 °F - 63.5 °F 73% 30.13 in 7.0 mi North 3.5 mph - N/A   Mostly Cloudy
8:15 PM 70.7 °F - 63.7 °F 78% 30.13 in 10.0 mi NNW 3.5 mph - N/A   Mostly Cloudy
8:35 PM 70.5 °F - 64.6 °F 81% 30.14 in 10.0 mi Calm Calm - N/A   Overcast
8:55 PM 70.7 °F - 64.0 °F 79% 30.14 in 10.0 mi Calm Calm - N/A   Overcast
9:15 PM 69.6 °F - 64.9 °F 85% 30.14 in 10.0 mi Calm Calm - N/A   Overcast
9:35 PM 68.9 °F - 63.9 °F 84% 30.14 in 10.0 mi North 4.6 mph - N/A   Mostly Cloudy
9:55 PM 68.5 °F - 63.9 °F 85% 30.14 in 10.0 mi North 3.5 mph - N/A   Mostly Cloudy
10:15 PM 68.7 °F - 64.0 °F 85% 30.14 in 10.0 mi NNW 3.5 mph - N/A   Overcast
10:35 PM 68.0 °F - 63.5 °F 85% 30.13 in 10.0 mi North 3.5 mph - N/A   Mostly Cloudy
10:55 PM 66.7 °F - 62.8 °F 87% 30.13 in 10.0 mi North 3.5 mph - N/A   Scattered Clouds
11:15 PM 66.2 °F - 62.1 °F 86% 30.14 in 10.0 mi Calm Calm - N/A   Clear
11:35 PM 64.6 °F - 61.9 °F 91% 30.14 in 10.0 mi Calm Calm - N/A   Clear
11:55 PM 64.9 °F - 62.2 °F 91% 30.14 in 10.0 mi North 3.5 mph - N/A   Clear